#timestamp,LO_Frequency,Hit,StdDev 
1562500815.8,286046997.2,N
1562500835.6,286046996.5,Y
1562500855.4,286047001.2,P
1562500875.3,286047000.9,N
1562500895.1,286047001.2,N
1562500915.9,286046998.5,N
1562500935.7,286046998.7,N
1562500955.5,286046999.1,N
1562500975.4,286046998.3,N
1562500995.2,286046998.6,N
1562501015.0,286046999.6,N
1562501016.0,286046999.6,N
1562501035.8,286046996.7,N
1562501055.6,286046997.0,N
1562501075.5,286046997.2,N
1562501095.3,286046997.6,N
1562501115.1,286046997.3,N
1562501135.9,286046995.8,N
1562501155.7,286046998.0,N
1562501175.6,286046999.3,N
1562501195.4,286046994.9,Y
1562501215.2,286046999.6,P
1562501235.1,286047000.0,N
1562501236.0,286047000.0,N
1562501255.8,286047000.4,N
1562501275.6,286046998.6,N
1562501295.5,286046998.4,N
1562501315.3,286046998.5,N
1562501335.2,286047000.2,N
1562501355.9,286047000.0,N
1562501375.7,286047001.1,N
1562501395.6,286046999.5,N
1562501415.4,286047000.4,N
1562501435.3,286046999.9,N
1562501455.1,286047001.0,N
1562501456.0,286047001.0,N
1562501475.8,286047000.6,N
1562501495.7,286047002.7,Y
1562501515.5,286047001.6,P
1562501535.4,286047003.1,P
1562501555.2,286047009.0,P
1562501575.0,286047008.7,N
1562501575.9,286047008.7,N
1562501595.8,286047006.5,N
1562501615.6,286047004.6,N
1562501635.4,286047006.7,N
1562501655.3,286047004.9,N
1562501675.1,286047005.4,N
1562501695.9,286047004.9,N
1562501715.7,286047005.2,N
1562501735.5,286047003.3,N
1562501755.4,286047002.9,N
1562501775.2,286047004.8,N
1562501795.1,286047005.0,N
1562501796.0,286047005.0,N
1562501815.8,286047005.6,N
1562501835.6,286047005.9,N
1562501855.8,286047005.1,N
1562501875.6,286047004.2,N
1562501895.5,286047007.2,Y
1562501915.3,286047002.1,P
1562501935.2,286047001.5,N
1562501955.9,286047000.6,N
1562501975.7,286047000.1,N
1562502025.6,286046999.7,E
1562502035.5,286047002.3,N
1562502055.3,286047000.2,P
1562502075.2,286046999.9,N
1562502095.0,286046997.1,N
1562502095.9,286046997.1,N
1562502115.7,286046997.7,N
1562502135.6,286046997.8,N
1562502155.4,286046996.5,N
1562502175.3,286046998.5,N
1562502195.1,286046999.3,N
1562502196.0,286046999.3,N
1562502215.8,286046999.4,N
1562502235.7,286046998.7,N
1562502255.5,286046999.9,N
1562502275.4,286046998.3,N
1562502295.2,286046998.2,N
1562502315.0,286046996.9,N
1562502315.9,286046996.9,N
1562502335.8,286046997.2,N
1562502355.6,286046997.4,N
1562502375.5,286046999.0,N
1562502395.3,286046999.4,N
1562502415.1,286047000.9,N
1562502435.9,286046999.1,N
1562502455.7,286046996.8,N
1562502475.5,286046998.0,N
1562502495.4,286046995.0,Y
1562502515.2,286046999.6,P
1562502535.1,286047000.9,N
1562502536.0,286047000.9,N
1562502555.8,286046998.3,N
1562502575.6,286047001.1,N
1562502595.5,286046999.9,N
1562502615.3,286046998.3,N
1562502635.2,286046998.6,N
1562502655.9,286046996.8,N
1562502675.7,286046996.5,N
1562502695.6,286046997.3,N
1562502715.4,286046997.9,N
1562502735.3,286046993.7,Y
1562502755.1,286046986.3,P
1562502756.0,286046999.5,N
1562502775.8,286046998.6,N
1562502795.7,286047002.7,N
1562502815.5,286047000.2,N
1562502835.4,286046999.8,N
1562502855.2,286047001.0,N
1562502875.0,286047002.2,N
1562502875.9,286047002.2,N
1562502895.8,286047002.5,N
1562502915.6,286047001.5,N
1562502935.4,286047004.4,N
1562502955.3,286047002.8,N
1562502975.1,286047004.1,N
1562502995.9,286047002.0,N
1562503015.7,286047000.0,N
1562503035.5,286047000.7,N
1562503055.4,286047000.6,N
1562503075.2,286047000.1,N
1562503095.0,286047000.6,N
1562503095.9,286047000.6,N
1562503115.8,286047001.1,N
1562503135.6,286047002.3,N
1562503155.5,286046999.7,N
1562503175.3,286047002.4,N
1562503195.1,286047001.0,N
1562503215.9,286047000.9,N
1562503235.7,286046998.3,N
1562503255.6,286046999.1,N
1562503275.4,286046997.1,N
1562503295.2,286046996.6,N
1562503315.1,286047001.1,N
1562503316.0,286047001.1,N
1562503335.8,286046998.6,N
1562503355.6,286047000.0,N
1562503375.5,286047000.5,N
1562503395.3,286047000.6,N
1562503415.2,286046998.2,N
1562503435.9,286047001.2,N
1562503455.7,286047001.2,N
1562503475.6,286047000.6,N
1562503495.4,286047000.1,N
1562503515.2,286047002.6,N
1562503535.1,286047000.2,N
1562503536.0,286047000.2,N
1562503555.8,286047000.4,N
1562503575.7,286047002.2,N
1562503595.5,286047002.1,N
1562503615.3,286047001.0,N
1562503635.2,286047000.8,N
1562503655.0,286046999.2,N
1562503655.9,286046999.2,N
1562503675.8,286046999.1,N
1562503695.6,286046996.5,N
1562503715.4,286046999.4,N
1562503735.3,286046996.6,N
1562503755.1,286046996.9,N
1562503775.8,286046997.0,N
1562503795.7,286046996.9,N
1562503815.5,286046997.4,N
1562503835.4,286046996.7,N
1562503855.2,286046995.4,N
1562503875.0,286046995.1,N
1562503875.9,286046995.1,N
1562503895.8,286046995.1,N
1562503915.6,286046995.5,N
1562503935.5,286046996.3,N
1562503955.3,286046993.7,N
1562503975.1,286046994.0,N
1562503995.9,286046994.1,N
1562504015.7,286046994.2,N
1562504035.5,286046994.0,N
1562504055.4,286046992.2,N
1562504075.2,286046990.5,Y
1562504095.1,286046996.3,P
1562504096.0,286046996.3,P
1562504115.8,286046993.3,P
1562504135.7,286046994.5,Y
1562504155.5,286046997.5,P
1562504175.3,286046997.9,N
1562504195.2,286046997.5,N
1562504215.0,286046997.7,N
1562504215.9,286046997.7,Y
1562504235.8,286046998.5,P
1562504255.6,286046998.5,N
1562504275.4,286046998.5,N
1562504295.3,286046998.1,Y
1562504315.1,286047001.8,P
1562504335.9,286047001.5,N
1562504355.7,286047000.3,N
1562504375.5,286047000.2,N
1562504395.4,286047001.0,N
